Regional Weather Roundup
Issued by NWS Green Bay, WI

Home | Current Version | Previous Version | Graphics & Text | Print | Product List | Glossary Off
Versions: 1 2 3 4 5 6 7 8 9 10 11 12 13 14 15 16 17 18 19 20 21 22 23 24 25 26 27 28 29 30 31 32 33 34 35 36 37 38 39 40 41 42 43 44 45 46 47 48 49 50

000
ASUS43 KGRB 190559
RWRGRB

NORTH-CENTRAL AND NORTHEAST WISCONSIN REGIONAL WEATHER ROUNDUP
NATIONAL WEATHER SERVICE GREEN BAY WI
100 AM CDT SAT APR 19 2014

WIZ005-009-010>012-018-019-190700-
NORTH CENTRAL WISCONSIN

CITY           SKY/WX    TMP DP  RH WIND       PRES   REMARKS
IRONWOOD         N/A     36  23  60 SE9       30.31F
MANITOWISH WTR NOT AVBL
ARBOR VITAE    NOT AVBL
EAGLE RIVER    NOT AVBL
LAND O LAKES   NOT AVBL
RHINELANDER      N/A     32  22  66 SE8       30.36R
PHILLIPS       NOT AVBL
ANTIGO         NOT AVBL
TOMAHAWK       NOT AVBL
MERRILL        NOT AVBL
$$

WIZ013-073-190700-
NORTHEAST WISCONSIN

CITY           SKY/WX    TMP DP  RH WIND       PRES   REMARKS
IRON MOUNTAIN    N/A     24  21  88 CALM      30.39R
MARINETTE        N/A     27  23  86 E7        30.41S
$$

WIZ017-030-035>037-045-190700-
CENTRAL WISCONSIN

CITY           SKY/WX    TMP DP  RH WIND       PRES   REMARKS
MEDFORD        NOT AVBL
WAUSAU           N/A     35  27  72 E9        30.34R
MOSINEE        NOT AVBL
MARSHFIELD       N/A     38  28  67 SE12      30.33R
WISC RAPIDS      N/A     36  27  69 SE9       30.37R
STEVENS POINT  NOT AVBL
WAUPACA        NOT AVBL
SHAWANO        NOT AVBL
CLINTONVILLE   NOT AVBL
$$

WIZ038-039-048-051-190700-
FOX VALLEY

CITY           SKY/WX    TMP DP  RH WIND       PRES   REMARKS
NWS GREEN BAY    N/A     33  27  78 E8        30.40S
APPLETON       NOT AVBL
OSHKOSH          N/A     35  25  66 E7        30.39R
FOND DU LAC      N/A     35  24  64 SE9       30.39R
$$

WIZ022-050-052-190700-
EAST CENTRAL WISCONSIN

CITY           SKY/WX    TMP DP  RH WIND       PRES   REMARKS
STURGEON BAY     N/A     32  25  74 E6        30.42R
MANITOWOC      NOT AVBL
SHEBOYGAN        N/A     32  27  81 E7        30.40S
$$

LMZ563-521-522-541>543-190700-
LAKESHORE

STATION/POSITION TIME  TEMP    WIND        PRES    VSBY  WAVE
                       AIR SEA DIR/SP/G                  HT/PER
                 (UTC) (F)     (DEG/KT/KT) (MB)    (MI)  (FT/S)
SHEBOYGAN LKSHOR 0500   36      30/ 11/ 12 1030.5R
KEWAUNEE LKSHORE 0500   34      80/  4/  7 1030.4R
NORTHPORT PIER   0500   33      60/  8/ 10 1029.8F
SISTER BAY LKSHO 0500   31      CALM  /  2   N/A
MENOMINEE LKSHOR 0500   25     360/  5/  6 1030.5R
$$



USA.gov is the U.S. government's official web portal to all federal, state and local government web resources and services.